Regional Weather Roundup
Issued by NWS

Home | Current Version | Previous Version | Graphics & Text | Print | Product List | Glossary On
Versions: 1 2 3 4 5 6 7 8 9 10 11 12 13 14 15 16 17 18 19 20 21 22 23 24 25 26 27 28 29 30 31 32 33 34 35 36 37 38 39 40 41 42 43 44 45 46 47 48 49 50
000
ASUS43 KLOT 061221
RWRIL

ILLINOIS REGIONAL WEATHER ROUNDUP
NATIONAL WEATHER SERVICE CHICAGO/ROMEOVILLE IL
700 AM CDT WED MAY 06 2015

NOTE: "FAIR" INDICATES FEW OR NO CLOUDS BELOW 12,000 FEET WITH NO
SIGNIFICANT WEATHER AND/OR OBSTRUCTIONS TO VISIBILITY.

* THESE STATIONS ARE NOT UNDER NWS QUALITY CONTROL. THEY ALSO MAY NOT
  REPORT WEATHER SUCH AS PRECIPITATION OR FOG.

ILZ001-002-007-009-015-016-024-061300-
NORTHWEST ILLINOIS

CITY           SKY/WX    TMP DP  RH WIND       PRES   REMARKS
MOLINE         FOG       57  55  93 E9        30.12R VSB 1/4
6HR MIN TEMP:  56; 6HR MAX TEMP:  58;

STERLING*      CLOUDY    55  52  88 E10       30.16R VSB 1/2
SAVANNA*       FOG       54  53  95 E9        30.15R VSB 3/4
$$

ILZ003-004-008-010-011-017-018-061300-
NORTH CENTRAL ILLINOIS

CITY           SKY/WX    TMP DP  RH WIND       PRES   REMARKS
ROCKFORD       FOG       51  50  96 E6        30.20R VSB 1/4
6HR MIN TEMP:  50; 6HR MAX TEMP:  52;

FREEPORT*      FOG       50  50  99 E8        30.17S VSB 1/4
ROCHELLE*      FOG       52  52 100 SE8       30.17R VSB 1/4
DE KALB*       FOG       49  49  99 E9        30.18R VSB 1/4
PERU*          FOG       56  55  99 E5        30.16R VSB<1/4
$$

ILZ005-006-012>014-019>023-061300-
NORTHEAST ILLINOIS

CITY           SKY/WX    TMP DP  RH WIND       PRES   REMARKS
CHICAGO-OHARE  FOG       49  48  97 NE5       30.18R VSB 1/8
6HR MIN TEMP:  46; 6HR MAX TEMP:  49;

CHICAGO-MIDWAY FOG       53  52  96 E6        30.18R VSB 1/8
6HR MIN TEMP:  51; 6HR MAX TEMP:  53;

AURORA         FOG       53  51  93 E7        30.17R VSB<1/4
6HR MIN TEMP:  51; 6HR MAX TEMP:  53;

LANSING*       FOG       53  51  94 CALM      30.18S VSB 1/2
JOLIET*        FOG       57  57  99 E5        30.17R VSB<1/4
WAUKEGAN       FOG       45  45 100 CALM      30.19R VSB<1/4
6HR MIN TEMP:  44; 6HR MAX TEMP:  46;

DUPAGE AIRPORT FOG       51  50  96 E5        30.17R VSB 1/4
6HR MIN TEMP:  49; 6HR MAX TEMP:  51;

KANKAKEE*      FOG       59  59  99 E8        30.17S VSB<1/4
WHEELING       FOG       47  47 100 CALM      30.20R VSB<1/4
6HR MIN TEMP:  45; 6HR MAX TEMP:  47;

MORRIS*        FOG       56  55  97 E6        30.14R VSB<1/4
ROMEOVILLE*    DRZL/FOG  54  54 100 E6        30.17S VSB<1/4
NORTHERLY ISL    N/A     49  48  97 CALM        N/A
$$

LMZ740>746-061300-
SOUTHERN LAKE MICHIGAN

STATION/POSITION SKY/WX   TEMP    WIND        PRES    VSBY  WAVE
                          AIR SEA DIR/SP/G                  HT/PER
                          (F)     (DEG/KT/KT) (MB)    (MI)  (FT/S)
HARRISON CRIB              47      60/  1/  3   N/A
BURNHAM HARBOR             49      10/  1/  2   N/A
CALUMET HARBOR             47      10/  2/  2   N/A
BURNS HARBOR               57     110/  8/ 12 1022.4S
MICHIGAN CITY              56      90/  5/  7   N/A
MICHIGAN CITY 6N           54 51  140/  4/  6   N/A           1
ST. JOSEPH                 54 50  160/  8/ 10   N/A           1
$$

ILZ025>027-034>036-040-047-049-050-058-095>099-061300-
WEST-CENTRAL ILLINOIS

CITY           SKY/WX    TMP DP  RH WIND       PRES   REMARKS
QUINCY         MOSUNNY   64  55  72 S7        30.10R
GALESBURG*     CLOUDY    58  57  96 E7        30.12R FOG
MACOMB*        CLOUDY    59  59 100 SE3       30.13R FOG
JACKSONVILLE*  MOSUNNY   69  57  66 S6        30.13R
PITTSFIELD*    SUNNY     63  57  79 SE5       30.13R
$$

ILZ028>032-037-038-041>044-048-051>054-059>061-061300-
CENTRAL ILLINOIS

CITY           SKY/WX    TMP DP  RH WIND       PRES   REMARKS
PONTIAC        FOG       62  62 100 E7        30.16R VSB<1/4
BLOOMINGTON    MOSUNNY   62  59  90 SE6       30.16R
DECATUR        CLOUDY    66  57  72 S6        30.15R
PEORIA         MOSUNNY   62  58  86 E6        30.13R FOG
6HR MIN TEMP:  60; 6HR MAX TEMP:  63;

LACON*         FOG       58  57  97 E3        30.14R VSB 1/2
LINCOLN*       PTSUNNY   62  58  88 CALM      30.13R
SPRINGFIELD    PTSUNNY   68  56  65 S9        30.13R
6HR MIN TEMP:  66; 6HR MAX TEMP:  70;

TAYLORVILLE    MOSUNNY   64  55  72 S6        30.15R
$$

ILZ033-039-045-046-055>057-062-063-061300-
EAST-CENTRAL ILLINOIS

CITY           SKY/WX    TMP DP  RH WIND       PRES   REMARKS
CHAMPAIGN      CLOUDY    65  57  75 SE6       30.16R
DANVILLE*      PTSUNNY   61  55  81 CALM      30.15R
RANTOUL*       CLOUDY    63  58  81 SE6       30.16S
MATTOON        PTSUNNY   64  55  72 S6        30.16R
PARIS*         MOSUNNY   64  56  76 SE3       30.18R
$$

ILZ079-100>102-061300-
SOUTHWEST ILLINOIS

CITY           SKY/WX    TMP DP  RH WIND       PRES   REMARKS
ALTON          MOSUNNY   59  59 100 CALM      30.15R
BELLEVILLE     SUNNY     60  59  99 CALM      30.14R
CAHOKIA*       SUNNY     60  57  89 CALM      30.14R
SPARTA*        SUNNY     60  56  86 SE5       30.16R
$$

ILZ064>066-069>071-074>076-080>082-084>086-088>090-092>094-061300-
SOUTH-CENTRAL ILLINOIS

CITY           SKY/WX    TMP DP  RH WIND       PRES   REMARKS
CARBONDALE     SUNNY     58  56  93 CALM      30.15R
6HR MIN TEMP:  57; 6HR MAX TEMP:  64;

CAIRO*         SUNNY     57  56  95 CALM      30.16R
EFFINGHAM*     SUNNY     62  55  80 CALM      30.19R
MARION         MOSUNNY   63  55  77 SE7       30.17R
MT. VERNON     SUNNY    N/A N/A N/A CALM      30.17R
CENTRALIA*     SUNNY     74  58  56 CALM      30.16R
SALEM*         SUNNY     63  56  79 CALM      30.16S
METROPOLIS*    SUNNY     60  60 100 CALM      30.16R
$$

ILZ067-068-072-073-078-083-087-091-061300-
SOUTHEAST ILLINOIS

CITY           SKY/WX    TMP DP  RH WIND       PRES   REMARKS
LAWRENCEVILLE  SUNNY     62  57  83 CALM      30.19R
FLORA*         SUNNY     58  54  86 CALM      30.17S
FAIRFIELD*     SUNNY     61  57  86 CALM      30.16R
HARRISBURG*    SUNNY     58  56  94 CALM      30.17S
ROBINSON*      SUNNY     57  55  90 CALM      30.19R FOG
CARMI*         SUNNY     59  53  80 CALM      30.17R
$$

ABBREVIATIONS USED IN REMARKS
   TC - TEMPERATURE IN CELSIUS
  WCI - WIND CHILL INDEX
   HX - HEAT INDEX
  VSB - VISIBILITY
$$




USA.gov is the U.S. government's official web portal to all federal, state and local government web resources and services.